Theta_e
292 290 290 290 291 293 292 291 290 288 289 287 285 286 290 290 286 285 290 291 288 291 291 292 292 292 292 292 292 293 292 290 288 288 287 287 287 287 287 288 288 288 288 288 288 286 286 286 285 285 285 285 286 286 286 286 285 284 285 284 284 283 283 283 283 283 282 281 281 280 279 278 277 277 276 275 275 275 274 274 274 274 273 273 273 273 273
289 289 288 289 290 289 290 290 291 291 289 288 288 288 290 289 289 291 291 290 291 294 293 293 293 294 293 292 292 289 288 288 288 288 288 288 288 288 288 288 288 289 288 288 288 287 286 286 285 285 285 285 285 285 285 285 284 284 284 284 283 283 283 283 282 281 281 280 280 279 278 277 276 276 275 274 274 273 273 273 273 272 272 272 272 272 272
286 288 288 288 289 289 287 289 289 290 289 288 288 288 289 290 289 290 288 287 288 295 297 297 297 294 290 288 288 290 290 289 288 288 288 288 288 288 288 289 289 289 289 289 288 287 287 286 286 286 286 285 285 285 285 285 284 284 284 283 283 283 283 283 282 281 281 280 279 278 278 276 275 274 274 273 273 272 271 271 271 271 271 271 271 271 271
285 286 287 287 287 286 286 287 289 288 286 284 287 286 289 287 286 288 288 286 287 294 294 293 289 288 289 290 291 290 290 289 288 288 288 288 289 289 289 289 289 289 288 288 288 288 288 287 286 286 286 285 285 284 285 284 285 284 284 283 283 283 283 282 281 280 280 279 279 277 276 274 273 273 272 272 271 271 270 270 270 270 270 270 270 270 270
285 281 285 286 284 285 283 284 288 290 288 289 290 290 291 290 290 287 285 286 292 293 291 289 286 287 289 290 291 290 290 289 289 289 289 289 289 289 289 289 289 289 289 288 288 288 288 288 287 287 287 286 285 285 284 285 285 284 283 283 283 283 282 281 281 281 280 279 277 275 275 273 272 271 270 270 270 269 269 270 269 269 270 269 269 269 269
282 276 282 284 283 276 280 285 292 293 290 290 288 289 290 292 290 289 291 291 289 288 290 291 289 287 288 291 292 293 292 290 289 289 290 290 290 289 290 290 289 289 289 289 289 289 288 288 288 288 288 287 286 286 285 285 284 283 283 283 283 283 282 281 281 281 279 278 276 275 273 272 271 270 270 270 270 270 269 268 269 269 269 268 268 268 268
276 278 281 280 275 280 283 280 282 284 294 294 292 292 293 293 291 289 287 286 286 289 290 292 293 291 289 288 290 289 289 291 290 289 288 289 289 288 288 288 288 288 288 288 288 288 288 288 289 288 288 287 287 287 286 285 284 283 283 283 283 283 281 281 280 279 278 277 275 273 271 270 270 270 270 269 268 268 268 268 268 268 268 267 267 266 266
279 277 280 274 278 284 281 281 281 284 286 289 290 289 291 291 290 289 288 289 287 287 287 286 285 288 285 285 284 286 287 288 290 289 289 289 288 288 288 288 288 287 287 287 287 287 288 288 288 288 287 288 287 286 286 285 284 284 283 283 282 282 281 280 279 278 276 275 274 272 271 270 269 270 269 268 268 269 267 268 268 267 267 267 265 265 265
277 279 279 281 284 284 284 281 282 284 286 285 286 283 287 290 289 289 289 289 286 285 284 281 282 283 285 286 288 286 285 285 288 289 289 289 288 289 289 289 288 288 288 287 287 287 286 287 286 286 287 286 286 284 283 284 283 283 282 282 282 281 280 279 277 277 276 275 273 271 270 269 269 269 269 268 267 267 266 267 267 267 266 265 265 265 264
282 278 277 277 279 277 284 286 285 287 286 289 290 288 286 284 286 288 289 288 287 284 283 282 282 284 285 284 286 288 285 285 286 287 287 286 287 287 287 287 285 285 285 285 286 286 285 285 285 286 286 285 285 282 282 282 281 281 281 281 281 280 279 278 277 276 275 274 272 271 270 269 268 269 269 269 267 266 266 266 266 266 265 265 264 264 263
280 279 278 278 276 280 286 284 281 283 282 287 286 284 281 284 282 287 288 288 288 286 283 281 283 284 283 284 287 285 284 284 286 285 286 286 286 286 286 286 286 284 284 284 284 284 284 283 284 284 283 283 282 282 281 280 280 279 280 281 280 279 279 278 276 275 274 273 272 270 269 269 268 268 267 267 267 266 265 265 265 265 264 264 263 263 263
282 280 279 277 282 283 284 282 281 282 283 285 286 276 278 284 281 284 287 288 287 285 283 282 283 283 281 283 286 286 285 285 284 285 285 285 284 283 283 283 284 284 283 282 282 282 283 284 283 281 282 282 281 281 280 279 279 279 280 280 281 280 279 276 274 273 272 271 270 269 268 268 267 267 267 265 264 264 264 265 265 265 264 263 262 262 263
282 282 281 282 282 285 280 280 281 282 281 284 279 275 282 281 282 283 287 286 285 283 281 283 282 285 286 285 284 284 284 282 282 282 284 284 284 284 282 282 282 282 283 283 284 283 284 283 280 280 280 281 280 280 279 278 278 280 281 281 280 278 276 273 272 271 270 269 268 268 268 266 266 265 265 265 264 263 263 264 263 263 262 261 261 261 262
280 282 279 280 284 286 281 280 282 282 283 277 277 285 283 283 281 283 284 285 283 283 283 283 285 286 284 282 282 282 282 284 284 283 282 282 281 282 282 281 281 282 282 283 283 282 282 280 279 279 280 280 280 280 278 277 279 281 280 279 277 275 273 272 270 269 268 267 267 265 265 265 265 264 264 264 264 262 263 263 261 261 261 262 262 263 263
280 279 278 278 275 282 280 281 281 282 281 283 284 282 282 282 283 282 282 283 282 283 283 284 285 282 282 282 282 282 282 283 282 282 281 281 282 281 281 281 281 281 281 281 282 283 281 278 278 278 279 279 279 278 277 278 280 280 278 276 274 273 271 270 268 266 266 264 264 263 262 263 263 263 263 261 261 261 261 261 260 260 261 261 262 263 263
278 279 275 277 285 282 283 284 282 283 285 287 284 284 282 281 281 282 283 283 283 283 284 283 283 281 280 281 281 281 281 281 280 281 281 282 282 282 283 283 282 281 282 282 282 282 280 277 277 277 278 278 278 277 277 280 279 276 274 273 272 271 269 268 266 265 264 263 263 262 262 262 262 262 262 261 260 261 261 262 263 263 264 263 263 263 263
281 280 283 283 282 285 285 286 283 286 285 283 283 285 284 282 281 282 284 283 282 282 282 282 282 281 281 281 282 282 283 282 281 281 281 281 282 282 282 282 281 280 281 282 282 282 280 276 276 276 277 279 277 275 279 278 275 273 271 270 269 268 267 266 265 264 263 262 261 261 261 261 261 262 261 260 261 262 261 262 263 264 264 264 263 263 263
281 280 282 282 281 283 284 283 283 282 281 279 281 283 282 283 283 282 283 284 282 281 282 281 281 282 282 282 281 281 281 282 282 282 281 280 280 280 280 280 279 279 280 281 281 281 280 277 275 275 275 278 277 277 280 276 274 271 269 268 268 268 267 265 264 263 261 261 261 260 260 261 262 263 263 261 263 264 263 263 263 263 263 263 262 262 262
280 277 279 279 281 282 283 283 282 281 281 281 280 281 283 284 282 282 283 283 282 282 281 282 282 282 281 281 282 281 281 281 282 281 281 281 281 280 279 280 279 278 278 278 278 279 279 278 275 274 274 275 278 280 277 275 272 270 268 268 268 268 266 265 264 262 262 262 261 259 259 261 261 262 263 263 263 263 263 263 263 263 263 262 262 263 263
279 279 278 278 278 279 281 283 282 283 283 281 280 281 281 281 281 281 282 281 281 281 280 281 282 282 282 281 281 281 281 281 281 281 280 281 280 280 281 281 279 278 278 278 279 278 279 280 276 274 274 273 275 276 273 272 270 268 267 268 269 268 266 265 264 262 262 261 261 262 260 260 261 261 262 262 262 263 263 264 263 263 263 262 263 263 263
277 276 277 277 278 280 281 280 282 284 284 282 281 280 280 280 280 280 280 281 281 281 282 282 282 282 282 281 282 282 282 280 280 280 280 281 281 281 280 279 277 278 278 277 278 279 279 281 278 274 273 273 274 273 271 269 268 267 268 267 269 268 266 264 264 262 263 263 263 263 262 260 262 263 262 261 262 262 262 263 264 264 264 264 263 263 264
275 276 278 278 276 276 280 280 281 282 282 282 281 280 280 280 281 280 279 279 279 279 281 281 281 280 282 282 281 281 281 281 281 280 280 280 279 279 280 279 277 277 277 278 277 278 279 280 278 275 274 273 272 272 270 268 267 268 268 268 267 267 266 264 264 262 262 262 262 263 262 262 260 260 260 264 263 262 262 263 265 267 266 264 264 265 264
277 280 280 281 283 282 282 284 284 283 282 282 281 281 281 281 282 282 281 280 279 278 278 279 280 281 282 282 281 280 280 280 281 281 281 280 279 279 279 277 276 275 276 276 276 276 277 278 277 275 274 273 271 269 269 267 266 268 268 268 268 267 264 264 263 262 262 262 261 262 262 262 261 261 262 262 266 268 267 266 267 268 270 270 271 270 267
279 281 281 281 281 281 281 281 281 282 282 282 282 283 283 283 282 281 281 282 282 281 281 279 279 280 281 282 281 279 280 281 280 280 280 280 281 280 279 278 277 276 275 275 275 275 277 276 275 275 273 272 271 269 267 266 266 267 267 268 268 268 266 264 262 262 262 262 261 261 261 261 261 261 262 263 263 266 268 269 270 270 271 271 272 272 273
281 281 280 281 281 281 280 280 280 281 281 282 282 283 283 282 282 281 280 280 281 282 282 280 279 278 279 280 280 280 280 281 281 280 279 278 279 278 278 276 276 275 276 276 276 276 276 275 275 274 272 272 269 267 266 265 264 265 266 266 268 267 265 263 262 261 261 261 261 261 260 260 260 260 261 262 264 265 266 267 268 269 269 270 270 271 271
282 280 279 279 279 280 279 280 280 280 279 280 281 281 282 281 282 280 280 281 281 281 281 281 280 279 278 279 280 280 279 280 280 278 278 277 277 276 275 275 276 277 277 277 276 276 274 273 273 272 271 270 267 266 264 263 263 264 265 265 266 266 264 263 262 262 261 262 261 262 262 261 261 261 261 262 262 263 263 263 263 265 267 268 268 268 269
280 280 279 279 279 280 279 280 282 283 281 279 280 281 282 281 279 280 280 279 279 279 279 280 281 280 278 278 278 279 279 279 277 277 277 277 277 277 277 276 276 276 275 274 274 272 271 271 270 269 269 266 264 263 262 262 262 263 263 263 264 262 260 261 263 262 262 262 262 261 261 261 260 259 260 260 260 259 259 261 262 263 263 263 265 265 265
281 279 282 280 279 281 281 281 282 283 281 279 279 279 279 277 275 275 275 276 276 276 276 276 276 275 276 276 276 276 276 275 276 277 276 276 277 275 274 273 273 273 272 271 271 270 268 268 267 267 265 260 260 260 260 261 261 261 262 262 262 263 261 260 261 262 262 261 261 261 260 260 260 259 259 259 259 259 259 258 258 258 259 261 261 262 264
280 280 280 282 283 283 281 280 279 279 279 278 278 278 276 275 275 275 276 278 279 278 278 277 275 275 277 277 276 275 276 277 276 276 277 277 274 273 270 268 267 266 267 267 266 264 264 264 263 264 262 258 259 259 259 260 261 261 261 261 262 262 262 261 261 261 261 260 260 260 261 259 259 258 259 259 259 259 259 258 258 258 259 259 259 259 262
280 280 279 280 281 280 279 280 280 280 279 277 276 276 276 277 277 277 278 278 277 277 278 279 276 275 274 274 274 275 275 276 277 276 275 270 265 263 264 264 263 264 263 263 261 260 261 261 261 262 260 257 258 258 258 260 260 260 260 260 261 262 262 261 260 260 259 259 258 259 259 259 259 259 258 258 258 258 258 258 258 258 258 258 258 258 259
278 278 278 279 278 278 277 279 280 280 279 276 277 276 274 274 276 278 279 279 277 277 277 277 276 276 272 273 274 274 275 274 274 272 266 263 262 261 262 264 269 272 271 268 260 258 260 260 260 260 257 256 257 257 258 259 260 259 259 260 260 260 260 260 261 259 259 259 258 258 258 258 259 258 258 258 258 258 258 258 257 257 257 258 258 257 258
276 275 273 276 276 276 276 277 277 278 278 276 273 275 275 274 273 275 277 277 278 278 277 276 275 275 276 275 272 271 271 271 268 263 260 260 260 259 258 258 259 258 258 257 258 258 259 259 258 256 255 256 256 257 258 259 259 259 260 259 259 260 260 260 261 261 259 258 258 258 257 257 258 258 257 257 257 257 257 257 257 257 257 257 257 257 258
274 272 273 273 270 270 273 275 275 276 277 275 276 278 278 277 277 277 278 278 277 276 276 276 276 276 272 271 271 269 267 263 261 260 259 257 257 256 256 257 257 257 257 257 257 258 258 258 257 256 255 256 256 257 258 259 259 260 260 260 260 260 259 261 260 261 259 257 257 257 257 257 257 257 257 257 257 257 257 257 256 256 256 256 257 257 258
278 280 281 280 278 278 277 277 277 276 277 278 277 277 276 276 276 276 276 276 275 274 275 275 274 271 269 269 268 266 263 266 268 266 260 256 255 255 255 256 256 256 256 257 258 259 258 257 257 257 256 256 256 257 257 258 259 259 259 259 259 258 258 259 259 259 259 258 258 257 257 257 257 257 257 257 257 257 256 256 256 256 256 256 257 257 257
282 282 282 280 279 280 280 280 279 278 277 276 275 274 275 275 274 275 274 274 274 275 271 270 268 266 266 266 266 265 264 268 267 264 258 256 255 254 255 255 256 256 256 256 257 257 256 256 256 257 257 257 257 257 258 258 259 258 258 258 257 258 258 257 258 258 258 258 258 258 258 257 257 257 257 256 256 256 256 256 256 256 256 256 256 257 256
275 276 276 275 273 272 272 272 272 271 272 274 273 271 271 271 271 271 271 271 267 266 267 265 262 262 262 263 264 262 262 260 256 257 256 255 255 257 257 257 257 256 255 255 255 254 256 257 256 257 258 258 258 258 258 257 258 258 257 257 257 257 257 256 257 257 257 257 257 257 257 256 256 256 256 255 256 255 255 255 255 255 255 256 256 256 256
266 270 271 270 265 263 261 258 256 258 262 263 263 263 263 260 258 258 258 259 260 259 258 259 261 261 259 257 256 256 257 258 259 258 257 256 257 257 257 257 257 257 258 257 255 255 256 256 256 256 258 258 258 257 256 256 257 256 256 256 256 256 256 256 256 256 256 256 256 256 255 255 255 255 255 255 255 255 255 255 255 255 255 255 255 255 255
259 258 259 259 257 257 253 253 252 253 256 256 253 253 253 254 254 254 255 255 255 257 258 258 257 256 255 255 255 254 253 254 254 254 255 255 256 256 257 258 259 260 260 257 256 256 256 256 255 256 257 257 257 256 255 255 255 255 256 256 255 255 255 255 255 255 255 255 255 255 255 255 255 255 255 255 255 254 254 255 255 255 255 255 255 255 255
260 259 257 255 254 253 253 252 252 251 251 253 253 253 254 253 253 254 254 254 254 255 256 256 256 256 255 254 252 251 250 251 252 253 253 253 255 256 255 254 254 254 255 256 255 255 255 254 254 254 255 254 254 254 254 255 255 255 255 255 254 255 255 255 255 255 255 255 255 255 254 254 254 254 254 254 254 254 253 253 253 254 254 254 255 254 255
256 255 254 254 253 253 253 252 251 251 251 252 253 252 253 253 254 254 254 254 254 254 256 257 257 256 253 252 251 251 248 248 250 251 251 252 252 253 254 254 252 252 253 253 254 254 253 254 253 254 254 253 254 254 254 255 255 255 254 254 254 254 255 254 254 255 254 254 254 253 254 253 253 253 253 253 253 253 253 253 253 253 253 254 254 254 254
255 255 255 254 253 253 252 252 251 251 250 250 251 251 252 253 254 253 253 252 253 253 253 254 255 253 253 252 250 248 247 247 248 249 250 254 255 257 257 255 253 252 251 252 252 252 253 253 253 254 254 254 254 254 254 254 254 255 255 254 254 254 254 254 254 254 254 254 253 253 253 253 253 253 253 253 253 253 253 253 253 253 253 253 254 254 254
252 253 253 253 253 252 251 251 251 251 251 250 250 251 252 253 253 252 252 252 252 252 251 251 252 251 249 248 248 247 246 246 247 247 248 253 255 257 256 254 253 252 253 253 253 253 253 252 252 253 253 252 252 252 253 253 253 253 254 254 253 253 253 253 253 254 254 254 253 253 253 253 253 252 253 252 252 252 253 253 253 253 253 253 253 253 253
250 250 251 251 251 250 250 250 250 250 250 250 250 249 250 251 251 251 251 251 251 251 251 250 250 250 249 250 250 249 248 247 248 249 250 249 248 249 253 255 253 252 252 253 253 254 254 254 253 253 252 253 254 252 253 255 253 252 253 252 252 253 253 253 253 253 253 253 253 253 252 252 252 252 252 252 252 253 253 252 252 253 253 253 253 253 253
249 250 251 250 250 250 251 250 251 251 251 250 249 249 249 249 250 251 251 251 251 251 251 250 250 249 249 250 251 252 251 252 252 253 254 254 253 251 249 252 252 251 251 253 253 254 254 254 253 252 252 253 253 253 255 256 255 253 252 252 252 253 253 253 253 253 253 253 253 253 253 252 252 252 252 252 252 253 253 252 253 253 253 253 253 253 253
249 249 249 250 251 252 252 251 251 250 250 249 249 248 248 248 248 249 250 251 251 251 251 251 250 250 251 251 252 252 252 252 253 254 256 255 254 254 251 249 251 251 252 252 254 254 254 253 253 252 254 254 254 254 255 256 255 255 255 253 252 252 252 253 253 253 253 252 252 253 253 253 253 253 253 253 252 252 252 253 253 253 253 253 253 253 253
248 249 249 250 250 250 250 250 250 251 251 251 250 249 248 247 248 248 249 250 251 251 252 252 252 251 251 251 251 249 249 250 249 249 251 253 255 254 252 252 252 252 252 253 254 254 254 253 253 254 254 255 255 255 256 256 256 256 255 254 253 253 253 253 253 253 253 253 253 253 253 253 253 253 253 253 253 253 253 253 253 253 253 253 254 254 254
248 249 248 248 249 249 250 251 252 252 252 252 251 250 249 248 248 249 248 248 249 249 250 251 251 251 251 251 252 254 254 253 253 251 249 250 250 251 252 252 252 252 253 254 254 254 254 254 254 254 255 255 255 255 255 255 255 255 254 254 254 254 254 254 253 253 253 253 253 253 253 253 253 253 253 253 253 253 253 253 253 253 253 253 253 253 252
247 247 247 247 247 247 248 249 249 250 250 250 250 250 248 248 248 248 248 249 248 248 248 248 247 246 246 246 247 249 252 255 255 254 252 251 251 249 250 251 252 252 253 253 254 254 254 254 254 254 255 255 255 256 255 255 255 255 254 253 253 253 254 254 254 254 254 253 253 253 253 253 253 254 254 253 253 253 253 253 253 253 253 253 253 253 253
246 246 246 246 247 248 249 250 250 250 250 249 249 250 249 249 250 251 250 250 250 251 251 249 248 248 247 246 248 250 248 248 253 255 253 251 252 252 252 252 252 252 253 253 252 252 253 253 253 254 254 254 255 255 254 254 254 254 254 254 254 254 254 254 254 254 254 253 253 253 253 253 253 254 253 253 253 253 253 253 253 253 253 253 253 252 252
247 248 249 250 250 250 250 252 251 251 250 250 251 251 250 252 254 252 252 251 252 252 252 252 252 252 250 250 250 249 247 248 250 251 251 251 249 251 251 250 251 252 253 253 252 253 253 253 254 254 254 255 255 255 255 254 253 253 253 253 254 254 254 253 253 253 253 253 253 253 253 254 254 253 253 253 253 253 253 253 253 252 251 251 252 252 252
248 248 248 247 247 246 245 247 249 249 250 250 250 251 252 253 253 252 252 252 252 253 252 252 253 252 252 252 252 251 248 246 247 250 252 252 252 252 252 253 253 254 254 255 254 254 254 254 253 253 253 254 254 254 254 254 254 254 254 254 253 254 254 254 254 254 254 254 254 254 254 254 254 253 253 253 253 253 252 252 252 252 252 252 252 252 252
247 247 248 248 248 248 248 247 247 248 249 250 251 252 252 252 252 252 252 252 252 252 252 252 252 252 250 251 252 253 251 250 250 251 252 253 254 254 254 254 255 254 254 253 253 252 253 253 252 253 253 253 253 253 253 253 253 253 253 253 253 254 254 254 254 253 253 253 253 253 253 253 253 253 252 252 252 252 251 251 251 251 251 251 251 251 251
Wind_Speed
10 2 2 5 5 7 11 17 17 16 15 16 18 18 10 10 12 14 10 14 14 12 16 11 9 11 10 8 9 11 9 6 7 8 10 12 13 13 14 15 14 14 14 14 14 12 12 13 14 13 12 12 10 10 10 11 10 11 10 11 11 11 11 10 9 8 7 6 6 6 7 6 6 5 4 4 3 3 2 2 1 1 1 1 1 1 1
7 6 5 5 8 4 2 8 12 15 16 19 16 14 17 16 17 16 3 10 13 6 8 9 10 8 7 5 4 3 5 8 9 9 10 12 14 15 16 15 15 14 12 10 11 12 12 14 14 14 13 13 13 12 12 12 11 11 10 11 12 11 11 9 7 7 7 6 7 7 7 6 5 5 4 4 4 3 2 2 1 1 1 1 1 1 2
8 8 4 3 4 6 5 7 8 10 7 3 11 15 13 11 13 11 3 4 13 6 9 9 6 6 2 4 8 11 9 9 10 11 11 11 12 13 12 11 12 10 10 10 11 13 15 15 16 15 14 13 12 13 12 12 12 11 11 11 11 11 11 8 8 8 7 7 7 7 6 5 4 5 5 4 4 3 2 2 2 2 2 2 2 2 2
9 6 10 6 3 1 7 12 13 9 11 11 13 11 16 10 15 15 11 12 13 5 8 4 4 6 9 11 11 10 8 9 10 11 10 11 11 11 12 12 10 10 11 12 13 14 15 16 16 15 13 13 12 14 13 13 12 10 10 11 11 11 9 8 8 8 8 8 7 7 6 5 5 4 4 4 4 3 3 2 2 2 2 3 2 2 2
9 1 5 9 4 0 7 22 18 13 16 11 11 13 10 13 12 11 12 16 12 9 6 8 5 9 11 9 8 7 6 8 9 10 10 9 8 9 9 9 10 11 12 13 14 14 14 14 14 15 14 13 14 14 13 12 9 9 10 10 10 9 8 9 9 9 8 8 6 6 6 5 5 4 4 4 4 3 3 2 2 3 3 3 3 2 3
2 2 4 7 6 10 17 4 6 22 19 18 16 15 15 15 12 10 7 7 2 3 9 11 9 9 12 11 7 4 7 9 8 7 5 6 7 6 7 7 9 10 8 8 11 13 14 13 14 13 13 13 12 10 10 9 10 10 10 10 10 9 8 9 9 8 8 7 6 6 5 5 5 5 4 4 4 3 2 2 3 4 3 4 3 3 3
3 2 6 7 12 18 2 4 5 4 13 18 21 19 19 16 13 7 6 7 8 9 9 11 11 9 4 4 4 6 4 6 7 8 7 8 7 7 7 8 8 9 10 10 10 10 11 11 11 10 11 11 9 9 10 9 9 10 10 10 10 9 9 9 8 6 8 7 6 6 6 5 5 4 4 4 4 3 3 3 4 4 4 4 4 3 3
4 3 8 6 9 2 3 2 3 3 6 3 5 10 10 7 12 14 13 13 9 5 6 2 5 4 2 1 2 4 4 5 7 8 8 7 6 7 7 8 8 9 10 11 12 11 8 8 9 10 11 10 9 9 8 9 9 9 8 9 9 8 8 8 9 8 7 7 7 7 7 6 5 5 5 5 5 4 3 3 4 3 4 3 4 4 4
6 5 9 8 6 8 6 4 4 7 7 9 9 8 8 12 13 12 14 13 7 6 4 4 4 3 2 2 5 4 7 7 7 9 7 7 9 8 7 7 6 6 6 6 6 6 7 9 9 10 9 9 9 8 8 7 8 7 7 8 9 10 8 9 9 9 9 8 8 7 7 6 6 6 6 5 4 4 4 5 5 5 4 4 4 4 4
5 4 3 2 4 11 5 3 1 6 3 4 6 5 6 1 6 10 11 13 10 7 7 6 6 5 3 6 8 7 9 8 9 5 1 1 2 3 3 3 2 4 4 4 5 7 8 8 8 8 8 9 9 8 8 8 8 8 8 10 10 9 10 8 9 9 9 8 8 8 7 7 7 6 5 4 5 5 5 5 5 5 4 4 4 4 5
6 5 7 5 7 5 2 3 3 1 0 5 8 3 7 3 8 11 13 11 9 11 11 9 7 5 5 7 6 3 8 8 6 7 6 5 4 3 4 5 5 6 6 6 7 7 8 8 8 8 8 9 8 8 8 8 9 8 10 11 10 11 11 9 9 7 6 7 8 8 7 7 6 7 6 5 4 5 4 4 4 3 4 4 4 4 5
5 7 5 8 3 4 1 4 2 3 3 3 5 2 4 4 7 5 6 8 6 6 10 10 9 8 6 8 3 6 6 7 8 8 8 7 5 4 4 3 3 5 7 8 6 7 8 9 8 9 9 9 9 9 8 7 8 9 11 12 11 9 7 7 7 6 6 11 10 13 8 6 5 5 4 4 5 5 5 4 4 3 4 4 4 4 4
9 9 7 2 4 2 2 3 2 2 2 2 7 8 1 2 4 4 5 4 4 10 10 8 7 11 4 3 4 3 5 5 3 4 3 3 4 5 5 6 5 6 6 7 8 10 7 7 8 8 8 7 8 8 8 8 10 12 11 8 7 8 7 7 7 7 6 11 13 8 5 7 6 5 5 5 5 5 5 4 3 3 4 3 4 4 4
8 7 7 7 5 1 6 1 5 5 4 5 8 1 1 6 5 3 3 7 7 11 15 9 8 3 5 4 5 5 6 7 6 6 5 4 3 2 3 5 6 5 5 5 3 3 4 7 8 8 7 11 7 8 7 9 12 10 7 7 7 7 7 7 8 10 11 7 7 7 5 6 6 5 4 4 4 4 4 4 4 4 3 3 3 3 3
1 1 7 2 10 1 6 10 4 3 5 2 4 3 1 1 5 9 7 6 7 9 9 9 6 6 4 4 5 4 5 4 4 6 7 7 7 7 5 5 6 6 6 7 8 8 6 7 7 7 11 12 9 9 10 17 10 7 6 7 8 6 8 10 11 13 11 12 8 6 6 5 6 6 5 4 4 3 3 3 4 3 4 3 3 3 2
5 8 8 7 1 6 11 15 8 7 5 2 7 7 3 1 3 5 5 5 7 9 8 8 5 4 5 2 3 3 3 3 1 2 4 4 3 4 5 4 7 8 8 7 7 6 6 6 6 7 11 11 10 10 15 10 6 5 6 5 7 10 12 13 12 10 10 8 6 6 7 6 6 5 5 5 4 4 4 4 3 3 3 3 2 2 3
7 4 2 1 1 13 12 2 5 4 5 2 7 6 6 7 4 4 4 7 7 9 6 5 7 6 6 6 6 7 6 5 6 6 7 7 8 8 8 6 6 7 8 10 9 7 6 8 6 7 8 11 11 13 13 6 10 11 11 11 11 12 14 14 13 8 7 7 7 6 6 7 7 6 5 5 4 4 4 4 4 3 3 2 2 2 2
3 3 3 2 2 3 6 4 3 3 4 0 2 4 3 5 4 8 7 7 6 8 5 5 3 6 7 6 4 4 4 5 4 4 2 3 4 3 2 3 7 7 5 4 3 6 7 7 7 7 7 9 12 15 8 8 10 13 12 12 12 13 12 10 9 9 9 6 6 6 6 6 6 5 6 6 5 4 4 4 3 3 3 2 2 3 3
3 3 5 3 2 1 7 4 2 2 1 3 3 3 4 5 6 6 4 4 8 8 9 8 7 8 6 6 6 6 5 6 6 6 7 6 7 7 7 10 6 5 6 7 9 10 10 8 8 7 11 9 12 4 5 7 11 12 12 13 13 11 13 8 8 7 9 7 7 6 6 5 5 4 4 4 5 4 4 4 3 3 3 3 3 3 3
3 1 4 1 3 3 3 2 4 5 4 3 3 0 1 1 2 4 4 4 3 5 5 9 8 7 6 6 7 6 7 8 7 7 8 8 6 7 8 6 7 6 7 10 12 11 12 11 10 10 11 12 13 7 5 8 10 10 11 13 13 15 16 10 8 9 8 9 9 6 7 6 6 5 5 5 5 6 5 5 4 4 4 4 4 3 3
2 4 2 2 2 1 4 4 7 5 3 4 4 3 1 2 5 4 3 3 4 8 8 7 7 6 6 8 8 8 6 5 5 7 8 8 9 7 7 7 9 10 11 12 12 12 13 9 9 11 12 12 10 9 8 9 10 13 12 12 11 11 9 6 7 6 6 6 6 6 5 5 5 5 6 6 6 4 4 3 4 4 4 5 4 4 4
3 4 6 7 3 2 4 8 12 11 7 5 4 3 4 5 6 5 7 6 2 2 1 5 7 8 9 8 8 7 8 7 7 7 6 7 7 6 5 3 7 9 9 11 12 12 12 8 8 10 12 11 9 8 7 9 10 12 12 9 10 9 7 6 6 6 6 6 5 4 5 5 5 4 6 9 7 5 4 9 14 14 11 7 6 5 6
2 3 8 8 3 2 4 8 8 6 6 7 7 8 10 9 8 7 7 7 4 6 8 6 9 11 8 9 7 8 6 8 8 9 10 8 8 10 7 7 8 9 11 10 10 11 11 7 9 10 10 9 9 9 10 11 10 11 9 9 6 5 6 7 8 7 6 6 6 5 4 4 4 4 3 6 14 16 13 11 12 15 17 18 17 16 10
2 3 10 8 5 5 3 4 6 5 7 9 11 9 7 5 6 7 8 9 11 10 7 8 8 9 8 6 6 8 10 9 9 9 8 9 10 7 4 7 8 9 9 8 11 14 12 8 9 8 9 8 9 9 10 10 10 10 10 8 8 8 7 4 6 5 4 5 5 5 4 4 4 4 4 3 4 12 17 16 16 16 17 17 17 16 17
4 4 6 9 8 3 3 1 3 1 3 7 6 8 9 8 8 9 11 10 8 9 6 7 8 7 7 9 6 9 12 12 10 10 8 9 6 5 5 5 7 8 10 11 10 10 7 7 8 8 9 8 5 7 9 9 10 11 11 10 8 5 4 5 6 6 5 5 5 5 6 6 5 5 4 4 4 2 5 11 12 12 12 14 15 15 15
4 4 3 3 2 2 2 2 3 5 5 7 7 5 6 6 8 5 9 11 9 8 8 7 7 8 9 10 10 10 8 12 6 5 5 4 4 5 6 10 12 10 7 6 6 6 6 7 7 6 8 6 6 7 8 8 10 11 10 9 7 5 5 7 6 6 6 5 5 5 5 5 5 5 5 4 2 2 2 2 5 8 11 11 8 5 7
2 7 8 4 2 4 6 8 6 7 9 8 10 9 5 2 4 3 2 4 5 3 5 10 8 4 4 8 8 6 8 9 3 5 7 7 8 11 8 5 3 4 5 6 6 6 6 5 5 6 7 2 4 6 8 8 9 8 7 8 3 4 8 8 5 5 5 5 5 4 4 5 5 4 4 3 3 4 4 4 3 3 3 4 6 6 5
7 7 9 9 6 8 8 10 10 6 3 7 8 8 4 3 2 2 4 5 4 6 6 6 6 5 7 6 6 8 6 6 9 5 6 10 7 4 3 3 3 4 5 6 6 4 4 5 5 5 3 2 4 6 7 8 8 8 7 6 4 4 4 5 4 3 4 4 4 4 4 4 3 4 3 4 3 4 3 4 4 4 4 4 2 4 8
10 8 7 7 8 4 3 3 1 4 5 3 2 1 2 3 5 6 7 9 8 4 5 6 6 8 7 4 5 7 7 6 6 9 9 5 2 1 1 1 1 0 2 3 2 1 2 2 3 4 2 2 3 5 7 8 7 6 6 6 5 4 5 5 4 3 3 3 3 3 4 3 3 3 4 3 3 4 3 4 4 4 4 4 4 5 5
6 4 6 8 8 4 2 5 7 8 6 6 7 6 6 6 6 7 10 9 6 7 10 5 3 6 7 7 6 7 9 11 11 3 1 0 1 1 2 2 3 1 1 1 3 1 2 2 3 3 2 2 3 4 7 5 4 6 6 4 4 4 4 4 4 4 4 3 3 5 4 4 4 4 4 4 4 4 4 4 4 4 4 4 5 5 4
6 5 7 8 7 4 7 11 10 6 4 5 8 5 4 4 7 10 11 10 6 6 7 6 7 5 4 8 9 7 5 3 2 1 1 2 2 2 1 1 3 3 2 2 4 2 3 2 2 1 2 3 4 4 5 5 5 5 4 4 3 3 5 7 5 4 4 4 4 5 4 4 4 4 3 4 4 4 4 4 4 5 5 5 5 5 6
5 6 5 4 4 4 6 6 8 9 7 3 3 6 8 8 9 12 11 8 9 10 9 7 6 8 9 6 3 3 4 3 1 2 2 3 3 3 3 2 1 3 3 3 2 2 2 3 3 2 2 3 3 3 4 4 4 4 4 4 4 3 5 7 4 5 4 3 4 4 3 4 4 4 4 4 5 5 4 4 5 5 5 5 6 6 5
7 3 3 5 3 3 7 7 6 9 7 7 10 9 7 7 7 8 9 7 5 5 5 7 7 7 4 3 4 4 3 3 3 3 3 3 3 3 3 2 3 4 4 3 3 3 3 3 3 2 3 3 3 3 3 3 3 3 3 3 3 3 4 6 5 4 4 4 4 4 3 3 3 3 4 3 3 3 4 5 5 6 6 5 6 6 4
9 9 10 7 9 9 9 11 8 9 8 7 6 5 4 6 8 8 8 6 5 5 7 8 5 2 3 4 3 4 5 4 2 4 4 4 4 3 3 4 4 5 5 4 3 3 3 3 3 2 3 3 4 3 3 3 2 2 3 3 3 3 3 3 4 4 4 3 3 3 4 2 3 4 3 3 4 4 5 6 6 6 6 6 6 5 7
8 8 6 1 2 6 6 7 5 5 6 6 5 5 6 6 6 8 6 5 7 5 2 1 1 2 3 3 4 5 6 6 2 2 5 5 5 5 4 6 6 6 6 5 4 4 4 3 3 4 4 4 3 3 3 3 2 2 3 2 2 2 2 2 3 4 3 3 2 3 4 5 5 4 4 4 5 5 6 7 7 7 8 7 6 5 5
1 4 2 1 1 2 3 3 2 2 2 3 3 2 4 5 5 5 5 3 2 3 0 1 2 3 2 2 2 2 3 2 3 5 5 5 5 4 4 5 6 6 5 5 4 3 2 3 3 3 3 3 3 3 3 3 3 3 3 3 3 2 1 2 2 1 1 1 2 2 3 3 2 2 3 5 6 6 7 7 8 7 8 7 6 5 5
7 2 2 2 4 4 5 6 4 3 2 2 2 1 1 4 3 4 4 4 4 4 3 2 3 3 4 4 5 6 4 3 3 4 4 5 4 5 5 5 4 3 3 3 2 2 2 3 3 3 2 2 2 2 3 3 2 2 2 2 2 2 2 1 1 1 2 1 2 2 2 2 5 5 5 6 7 7 8 8 6 7 7 6 6 6 5
6 8 7 5 4 7 7 4 3 4 2 5 5 4 3 4 4 5 7 7 6 4 4 5 5 7 6 6 8 8 6 5 6 7 7 6 5 7 5 3 2 2 2 2 3 1 2 3 3 2 2 2 2 2 2 3 3 2 1 1 1 1 1 1 1 1 1 1 1 3 4 5 5 6 6 7 7 7 7 7 7 7 7 6 7 7 6
7 5 6 4 5 6 5 6 5 7 8 5 5 4 4 3 3 5 7 7 5 3 5 7 6 8 9 10 7 6 7 5 5 6 7 6 3 6 5 3 3 4 3 4 3 2 2 2 2 2 2 1 2 1 1 2 4 1 1 1 1 1 1 1 1 1 2 2 2 4 4 5 5 6 6 6 7 6 6 7 7 7 7 7 7 6 5
5 6 6 4 7 5 8 8 7 7 6 5 6 5 4 4 4 6 6 6 6 4 3 4 7 8 8 10 9 7 4 4 3 6 7 6 8 9 5 4 4 3 3 3 2 2 3 3 2 1 1 0 0 0 1 1 2 2 1 1 1 1 1 1 2 2 2 3 4 4 4 5 5 6 6 7 7 7 6 7 7 7 7 7 7 6 5
4 4 4 4 5 4 4 5 7 5 5 6 6 4 3 2 3 8 7 5 4 5 6 3 6 6 6 7 10 8 5 3 4 5 3 5 6 3 4 3 2 1 1 1 1 1 2 1 0 0 0 0 0 1 0 1 0 0 0 1 1 1 1 2 2 2 2 3 4 4 5 5 5 6 6 6 6 6 6 6 7 7 6 5 5 5 5
6 5 4 5 5 4 5 5 4 5 6 5 5 5 5 4 4 6 4 4 5 5 7 8 7 9 9 9 7 7 7 5 5 5 4 1 2 2 3 2 1 1 1 2 1 1 1 1 1 1 0 0 0 0 1 1 0 0 0 0 1 1 1 2 2 3 3 3 4 5 4 4 5 6 6 6 6 6 7 6 6 7 6 5 5 4 4
6 5 4 3 3 4 4 5 7 7 5 5 5 5 5 5 5 5 6 6 6 6 8 8 8 8 8 8 7 8 5 3 4 3 5 4 3 3 2 3 2 0 2 1 1 1 1 1 0 0 1 1 0 2 3 1 1 1 1 1 1 1 1 2 3 3 3 4 4 4 4 5 6 6 6 7 7 7 6 6 7 7 5 5 4 4 4
4 3 3 4 4 3 4 5 6 5 6 5 4 4 6 7 6 5 6 7 7 6 7 6 8 8 6 5 6 4 2 2 2 1 4 3 3 2 1 1 0 1 2 1 1 1 1 1 0 1 2 3 3 2 1 1 1 1 1 1 2 2 3 3 3 3 4 4 5 5 6 6 6 6 6 7 7 7 7 7 7 6 5 5 5 5 4
5 4 4 4 4 4 3 4 6 6 5 4 4 7 8 8 8 6 6 6 7 6 5 4 4 3 3 2 2 2 2 1 1 0 2 2 3 1 1 0 0 0 1 1 1 1 1 1 2 3 3 3 4 3 2 2 2 2 3 2 2 2 2 3 3 3 4 5 6 6 6 6 6 7 6 7 7 6 7 7 7 7 6 6 5 5 5
5 4 4 4 6 5 4 4 5 5 5 8 10 8 7 7 6 6 6 6 7 5 4 4 4 4 4 4 3 4 4 1 0 1 1 1 0 1 1 1 0 1 2 2 1 1 1 2 4 4 4 4 4 3 2 3 3 3 4 4 2 2 3 2 4 6 6 6 6 6 6 6 6 7 6 6 6 6 6 6 6 6 6 7 7 6 6
4 5 6 5 6 3 3 3 3 4 6 7 9 5 3 5 5 3 4 5 6 5 4 4 4 3 2 2 1 2 2 2 2 0 0 0 0 0 1 1 1 2 2 1 1 1 1 2 2 3 4 4 4 3 3 3 4 4 4 4 3 3 5 6 6 5 5 6 6 6 6 6 6 7 6 6 6 6 6 6 6 7 6 6 7 6 7
6 6 5 4 5 3 4 4 5 5 5 6 4 3 1 2 4 4 3 4 5 3 4 3 2 1 1 1 1 1 1 1 3 1 1 0 0 0 0 0 1 2 3 3 3 3 4 4 4 4 4 4 2 2 3 4 3 4 3 2 3 5 7 7 6 6 6 6 6 5 5 5 6 6 6 6 6 6 6 6 6 6 6 6 6 6 6
5 6 4 4 5 6 5 4 5 5 3 1 2 2 2 3 4 4 3 4 5 3 2 2 3 2 0 0 0 0 0 2 1 1 1 0 0 0 0 1 3 3 3 1 2 2 2 3 4 5 5 5 3 3 3 4 3 4 5 5 5 6 6 6 6 6 5 5 6 5 5 5 6 6 6 6 5 6 5 6 6 6 6 6 6 6 6
3 4 4 3 3 3 3 3 2 2 2 2 2 1 0 0 2 2 1 1 1 1 1 1 1 1 1 1 0 0 1 0 1 1 0 1 1 2 1 1 2 3 3 3 2 2 3 3 4 4 4 3 4 3 3 3 3 3 4 5 5 5 6 6 7 7 6 6 7 6 6 6 6 6 6 6 6 6 6 6 6 7 8 7 7 7 6
3 4 3 3 2 3 5 4 2 2 2 1 0 0 1 2 2 2 1 0 0 2 2 2 2 1 2 1 1 1 0 0 0 1 0 1 1 2 2 2 2 2 2 2 3 3 3 2 2 3 3 3 3 3 3 3 4 5 5 5 5 5 6 6 5 6 6 6 6 6 6 6 6 6 6 6 6 6 6 5 6 6 6 6 7 7 7
4 3 3 4 4 5 5 4 4 3 1 1 0 1 1 1 1 1 2 3 1 1 1 2 1 0 0 0 0 0 0 0 0 0 1 1 1 2 2 3 2 2 2 3 3 2 3 3 3 4 4 4 3 4 4 5 5 5 5 5 5 6 6 6 6 6 6 6 6 6 6 6 6 6 6 6 6 6 6 6 6 6 6 6 6 6 6
Wind_Direction
244 3 172 182 210 210 201 205 203 195 193 191 201 216 225 164 210 239 108 178 214 211 176 193 194 191 199 195 200 207 196 147 144 162 175 184 192 193 196 200 198 197 197 195 187 180 183 183 189 190 190 192 193 194 191 188 187 189 181 180 183 184 184 185 180 167 158 151 135 130 138 145 149 149 142 136 137 135 136 137 123 169 229 216 227 243 252
231 229 175 187 189 174 215 208 203 197 190 196 194 212 215 205 230 239 170 207 230 202 140 182 202 193 189 190 160 107 149 180 170 175 183 190 195 196 199 200 200 201 200 185 181 180 184 190 192 192 192 193 194 192 193 191 191 189 177 185 185 186 186 184 166 162 158 147 146 148 155 157 154 151 148 144 144 141 147 146 155 192 217 228 227 247 254
238 210 200 253 186 177 225 229 219 211 197 131 201 216 215 224 252 247 165 233 257 182 152 201 185 179 143 109 177 190 184 160 169 178 188 193 197 200 200 200 201 196 191 186 184 190 194 194 195 194 195 194 192 194 195 193 191 186 180 185 187 185 187 177 162 163 159 157 153 162 160 152 151 154 150 148 144 144 156 158 179 196 225 216 223 235 236
232 181 193 198 193 264 247 249 223 180 157 176 209 207 215 194 220 231 240 250 250 183 153 153 157 155 180 198 195 186 182 173 171 183 190 194 196 195 197 200 195 191 192 193 193 196 197 197 196 195 193 190 187 196 194 193 189 176 178 184 186 187 184 162 168 167 167 160 164 161 153 157 158 154 146 149 149 154 160 166 200 205 231 218 230 228 234
217 89 170 184 121 188 279 242 216 170 189 201 200 220 215 212 206 218 220 233 239 257 129 158 188 197 206 208 190 180 169 178 181 185 191 193 187 190 187 185 190 194 197 199 199 200 198 197 197 199 191 187 195 195 190 190 168 165 180 184 186 182 171 171 176 175 165 164 163 157 163 156 156 153 153 152 150 153 169 167 204 225 217 211 224 222 238
157 10 170 136 167 214 231 314 169 185 195 194 202 214 208 210 197 218 225 248 246 162 168 190 189 190 212 202 192 163 168 169 190 204 189 190 190 186 185 187 192 196 197 200 203 203 200 199 200 197 192 195 196 185 180 172 169 176 180 186 187 184 172 179 177 172 164 160 164 163 154 157 162 162 157 163 152 155 153 185 216 225 217 216 220 227 235
152 137 129 167 212 229 42 277 329 323 207 195 211 224 222 217 205 217 253 230 209 211 195 199 203 194 85 50 140 178 193 186 175 176 193 208 193 188 188 197 201 198 197 200 203 202 204 200 194 189 195 196 185 175 176 171 175 175 183 184 189 186 179 181 171 166 165 170 167 158 161 163 166 164 162 153 154 170 177 203 211 215 212 209 213 224 237
76 130 177 200 223 53 136 37 350 25 55 39 217 265 263 208 188 197 215 225 216 177 183 69 26 70 69 41 193 201 188 183 166 180 203 200 187 197 206 197 197 190 193 193 192 198 189 179 188 191 194 183 175 178 166 175 174 181 181 186 190 179 177 178 176 174 169 172 164 163 167 169 168 169 170 169 170 173 182 210 217 216 223 209 212 219 234
175 189 196 239 14 312 166 120 193 174 162 175 175 214 236 206 194 190 208 220 172 135 107 96 85 76 78 311 276 185 181 182 201 199 194 174 191 195 196 193 197 189 184 182 183 159 168 181 182 187 178 166 169 157 164 177 169 179 180 190 193 187 187 180 178 177 179 171 167 165 168 168 176 176 171 173 173 171 190 212 210 210 204 209 212 217 227
151 138 188 282 259 243 235 155 177 215 13 126 173 187 255 81 199 184 192 214 187 140 132 136 131 127 125 245 245 192 193 181 200 211 127 67 163 196 175 167 131 151 164 157 161 170 174 179 180 171 164 163 164 159 170 167 172 180 184 199 193 183 191 182 181 178 179 171 163 167 169 180 174 179 171 172 174 181 198 205 212 204 206 209 216 220 223
142 201 213 212 219 237 112 184 195 61 126 143 116 108 255 164 181 191 192 203 173 163 150 151 152 147 212 237 238 124 174 180 184 186 209 201 196 182 186 182 176 170 167 165 161 162 167 174 176 162 155 156 157 171 170 170 176 179 195 200 188 188 194 179 178 174 167 166 169 168 174 179 168 169 173 177 175 178 204 214 216 204 208 216 213 224 222
191 196 212 226 217 267 165 195 180 209 167 206 120 246 261 153 197 190 180 197 164 137 149 151 171 170 205 225 205 144 169 174 171 186 193 195 195 196 183 193 171 143 137 135 151 167 180 183 157 154 153 162 174 175 173 163 178 195 203 199 192 186 168 158 166 165 170 167 173 174 170 159 164 170 159 164 180 190 200 208 208 206 207 217 215 233 231
215 214 237 297 279 241 145 160 187 159 225 177 181 221 118 182 186 177 185 189 131 140 143 171 165 219 208 63 86 100 113 108 186 217 217 187 174 177 179 177 146 147 165 173 175 183 186 158 153 160 158 157 175 183 165 175 200 209 202 181 166 166 160 158 164 167 171 179 168 173 163 159 159 163 177 182 177 189 197 208 203 214 212 230 227 235 234
227 224 235 241 276 186 138 19 149 200 134 190 205 192 343 141 168 200 198 139 149 155 172 183 209 125 94 99 80 130 176 182 184 162 155 140 140 90 98 131 154 152 169 188 177 169 163 154 160 161 163 170 184 170 171 201 214 202 166 162 158 155 160 170 166 161 163 162 165 155 145 153 164 175 183 176 179 184 204 202 201 220 222 231 232 238 237
60 123 243 227 240 122 121 116 60 282 188 286 96 119 86 88 171 162 194 172 177 173 188 209 180 99 128 145 164 161 184 182 164 157 163 177 179 170 148 157 197 174 171 192 199 193 168 160 169 167 170 181 187 183 191 216 204 165 160 156 160 164 161 159 170 168 164 162 159 154 157 168 160 173 166 171 184 185 200 208 213 224 229 225 231 241 241
187 190 207 209 276 128 174 151 176 188 190 159 152 127 123 83 148 173 167 206 189 195 193 184 174 130 143 209 202 167 170 196 100 137 183 188 182 176 193 185 176 183 195 196 199 184 161 166 173 173 177 187 188 187 214 214 148 138 148 157 151 158 165 167 157 169 169 161 155 163 163 163 173 173 177 171 179 198 194 209 220 219 229 206 224 236 249
178 205 206 63 314 161 180 86 7 102 125 128 164 137 158 153 216 193 194 195 184 206 201 178 161 161 204 196 190 183 192 171 186 187 195 191 195 197 193 200 171 187 205 200 202 186 181 177 187 185 194 189 189 202 220 163 169 163 160 151 167 175 174 172 175 166 156 170 166 167 167 166 172 182 177 170 193 196 190 212 216 227 238 217 240 255 261
96 32 123 51 65 189 172 83 20 88 126 74 54 142 126 241 164 169 183 193 177 189 189 145 186 203 196 190 189 212 224 206 209 192 158 200 213 213 182 177 179 198 215 253 232 223 206 182 192 196 202 201 194 218 185 169 168 148 158 166 177 187 184 180 176 158 164 168 171 170 171 183 188 187 174 179 200 190 191 205 200 212 233 213 229 239 241
139 244 96 139 144 141 214 159 85 355 27 147 161 231 180 158 161 186 246 179 182 175 168 192 190 200 188 189 200 200 203 207 211 201 206 207 194 186 196 213 179 176 182 210 222 223 226 192 190 201 206 215 222 213 161 163 154 165 171 177 184 178 178 177 168 169 175 177 173 171 182 183 190 192 191 190 196 204 203 201 200 209 217 213 228 230 236
192 281 124 202 339 276 314 256 199 223 186 165 187 273 1 64 149 183 156 111 108 134 185 211 204 207 182 187 206 205 208 206 200 198 207 210 198 213 210 195 184 194 195 211 221 219 229 214 183 203 206 219 222 210 159 153 166 170 180 186 186 185 179 172 176 179 189 180 172 173 182 181 182 189 193 195 199 203 195 194 192 210 203 215 219 221 230
107 44 321 281 313 274 208 198 238 239 180 168 174 180 136 117 142 166 177 224 175 180 199 186 197 211 209 202 209 207 206 200 205 209 210 210 211 205 191 203 189 199 204 213 221 221 230 224 198 206 216 222 218 200 174 157 167 178 190 197 200 196 182 171 184 174 182 165 187 176 168 181 208 198 187 190 203 218 218 202 207 205 210 223 219 214 215
208 181 175 167 129 225 190 210 215 217 189 164 155 155 191 199 186 176 175 216 204 222 241 180 193 204 223 211 205 221 219 205 208 211 217 221 224 231 222 190 205 217 218 215 220 224 234 220 202 210 217 220 209 184 170 169 176 188 195 184 190 192 176 184 179 167 183 179 177 180 175 185 189 234 241 225 216 208 220 214 223 227 220 219 210 206 217
221 162 161 187 167 141 194 197 212 198 146 164 177 197 201 208 202 182 182 184 195 220 228 213 194 209 214 220 194 219 232 224 217 208 198 204 221 230 210 208 219 216 222 221 227 236 238 222 217 217 220 214 201 191 182 167 185 197 188 187 197 190 168 197 186 172 170 168 172 178 179 180 186 199 214 226 229 229 228 225 225 228 231 236 236 228 212
38 189 166 175 150 179 189 185 220 186 160 172 202 222 213 207 191 185 204 204 196 215 211 204 212 219 223 221 176 217 235 235 220 216 218 219 221 224 206 213 224 223 229 224 224 232 235 225 224 221 225 219 203 189 182 183 185 194 196 193 197 195 184 177 157 175 178 171 157 171 178 180 189 191 211 230 229 222 228 235 236 240 243 246 249 252 254
187 175 173 177 186 124 45 154 220 96 143 178 197 224 214 206 197 180 197 216 225 222 216 209 216 213 220 230 202 213 223 231 216 216 227 230 238 233 227 222 231 225 227 223 227 233 236 226 225 225 227 226 183 176 177 179 181 198 203 205 210 176 157 158 173 179 181 176 184 181 177 179 185 191 200 207 229 221 196 217 236 247 252 251 255 256 253
146 122 103 79 64 109 128 73 274 217 200 191 210 246 238 216 203 180 207 211 216 210 220 231 210 205 206 221 223 221 237 245 235 197 207 210 219 224 228 224 227 226 234 237 237 237 236 231 229 229 234 224 178 179 172 177 188 201 203 207 209 189 169 163 164 175 184 187 184 189 187 183 186 185 202 204 212 225 247 234 210 231 244 253 254 255 253
59 133 118 92 222 214 184 187 218 197 177 180 195 216 215 152 191 215 252 246 246 229 215 228 232 215 204 226 234 234 227 247 245 211 218 229 229 225 229 236 243 236 236 241 246 239 236 234 229 231 239 220 152 148 155 170 178 194 188 177 172 160 166 170 179 177 176 179 177 178 177 184 184 188 197 192 192 197 212 229 251 245 210 224 244 261 265
183 191 174 187 202 215 193 208 226 239 137 177 197 227 218 92 108 177 235 249 250 239 236 232 220 213 226 224 201 237 239 239 239 228 212 227 228 233 230 226 225 222 225 226 239 229 221 224 221 230 220 81 127 130 147 163 169 157 159 161 161 154 155 176 180 173 169 170 174 177 179 185 175 184 179 182 191 207 209 218 229 253 276 259 249 263 272
214 191 211 219 227 236 61 67 357 251 216 198 209 66 127 178 215 216 230 226 227 222 239 230 205 216 222 220 191 222 230 232 238 235 231 227 164 184 183 182 114 11 227 246 259 315 238 230 211 226 172 85 122 139 141 150 163 169 165 162 171 166 162 166 166 168 159 156 163 170 175 158 173 183 195 200 209 211 215 215 220 233 245 279 299 291 253
180 175 201 234 246 236 195 235 222 218 184 170 180 213 210 202 223 235 228 233 223 228 238 239 195 215 210 225 222 219 225 232 237 288 57 88 60 44 109 122 97 68 59 261 231 65 149 178 190 217 147 132 135 132 131 156 159 140 137 144 157 160 160 137 142 150 146 166 159 164 171 176 189 191 195 199 204 212 219 222 226 229 236 243 247 264 257
188 198 209 227 241 239 222 239 249 246 185 174 194 198 204 207 223 239 244 239 229 237 249 235 230 233 204 217 225 226 240 264 277 249 80 71 65 49 45 164 204 238 228 209 165 175 159 128 111 85 85 134 123 138 143 151 145 139 142 149 155 151 151 159 168 160 164 157 165 177 190 186 194 189 200 202 207 215 220 226 228 235 238 241 238 238 244
154 200 217 232 237 238 250 253 255 254 228 174 167 205 204 195 214 229 237 239 233 228 240 244 234 231 232 230 211 196 215 219 149 80 89 65 60 36 28 34 58 63 63 62 82 109 115 107 80 82 125 119 123 132 146 148 143 149 156 153 147 155 172 174 180 183 165 173 173 183 189 187 198 195 211 215 217 221 221 221 231 233 236 238 241 241 240
142 163 254 240 246 274 257 254 237 250 240 207 217 221 217 214 225 235 236 235 245 244 238 249 245 244 233 188 191 193 167 114 90 101 104 88 49 30 20 45 62 67 66 58 68 72 84 99 106 106 110 123 129 136 134 132 143 149 141 147 150 159 161 189 191 184 165 175 190 193 190 195 208 210 220 224 230 233 235 236 241 246 245 242 246 250 237
187 210 227 210 186 207 228 244 230 239 252 232 226 227 224 223 225 238 247 246 247 250 234 239 250 233 188 185 169 145 135 134 190 190 165 123 115 71 57 70 75 80 77 74 64 73 78 95 111 113 108 108 119 126 139 145 153 135 141 136 152 145 161 185 188 197 198 200 205 203 200 201 215 223 227 226 234 234 236 242 244 248 253 250 249 252 252
224 241 252 305 182 224 229 239 237 224 232 244 234 225 228 230 228 235 246 244 240 250 267 258 204 150 145 151 158 166 177 207 224 124 137 132 138 136 122 110 102 90 79 55 51 56 58 61 72 93 97 100 105 114 122 147 134 116 113 130 138 155 161 163 188 205 206 209 197 199 222 232 233 224 235 242 243 245 249 247 249 252 255 255 256 253 252
265 260 301 21 304 256 265 288 349 337 261 254 261 233 224 235 235 243 254 256 10 12 23 91 100 101 90 115 152 154 175 112 93 107 116 130 140 141 127 122 119 104 93 77 48 25 21 86 82 96 104 115 112 120 129 133 138 134 148 156 164 165 166 176 185 199 210 224 220 222 222 223 238 239 239 248 249 247 247 251 250 249 251 253 253 257 258
23 35 48 64 43 50 58 48 23 10 22 13 18 17 358 11 7 345 11 31 18 16 16 93 99 98 95 58 70 67 65 76 94 112 124 129 131 123 116 110 102 112 109 88 51 71 73 87 114 117 111 117 116 125 128 136 140 139 142 152 162 161 173 180 192 200 219 208 229 237 240 248 251 252 246 244 250 252 251 251 247 245 247 248 252 251 252
36 40 43 47 25 58 59 45 28 -0 57 85 54 52 34 358 356 25 31 31 16 8 21 52 81 92 98 85 55 50 40 34 75 95 108 112 115 113 110 112 120 142 109 89 119 83 60 69 56 54 68 73 83 86 117 147 136 138 158 159 165 175 183 195 199 214 222 223 215 242 249 251 253 257 257 253 251 248 249 252 252 255 256 253 256 256 250
32 39 54 57 70 73 76 52 39 40 38 72 75 51 30 28 36 58 53 32 11 12 65 79 104 85 59 73 80 58 37 45 84 103 102 94 94 93 69 44 30 25 51 86 92 41 43 33 48 49 64 65 64 62 71 156 159 150 157 155 163 180 187 193 215 225 235 235 244 250 249 251 252 254 258 260 261 259 256 253 256 259 260 261 261 253 244
25 25 4 5 33 44 62 57 47 48 35 32 47 42 349 28 47 67 64 50 16 20 83 118 107 98 95 89 101 92 51 53 83 97 105 109 104 104 107 81 46 8 19 40 40 69 54 60 66 46 67 64 84 115 130 158 174 166 166 164 175 186 208 219 231 242 242 242 249 243 243 248 248 254 257 261 260 258 260 258 250 248 251 257 255 250 248
24 15 18 47 60 58 61 73 63 44 33 24 21 10 3 44 71 72 55 52 15 20 44 69 107 100 109 114 102 106 94 58 75 80 112 120 107 131 120 122 80 79 354 61 95 78 71 70 32 54 36 28 35 62 97 164 192 203 202 200 210 214 223 224 230 234 241 248 247 248 249 254 256 255 256 257 257 260 258 253 255 256 252 245 240 239 239
3 13 44 61 73 65 67 69 84 68 43 30 21 18 25 35 67 88 88 76 56 50 58 46 66 100 105 100 103 99 79 50 65 37 20 55 96 134 115 115 117 103 58 108 85 100 97 77 55 22 340 343 286 262 206 162 180 180 207 212 221 230 237 240 246 250 251 251 252 254 256 253 254 259 263 259 260 263 261 258 259 261 255 244 245 246 244
6 16 26 47 60 62 81 85 81 94 86 43 30 15 22 42 68 81 82 81 85 85 77 77 83 93 101 110 113 103 78 23 65 91 84 48 12 341 22 112 114 1 349 31 35 46 27 44 15 276 249 244 215 182 205 195 163 186 199 206 213 227 236 240 254 256 256 260 262 263 260 263 262 265 265 265 266 264 259 257 258 263 251 244 244 243 241
3 33 60 67 82 89 100 99 108 95 81 57 29 25 32 32 33 67 89 93 90 91 100 98 98 93 107 119 119 114 120 126 117 121 112 98 85 51 5 43 69 354 350 346 11 358 5 352 325 281 270 263 267 250 240 237 224 218 212 215 229 229 245 248 248 255 263 264 265 265 265 261 259 260 260 262 265 265 261 261 264 258 248 251 249 249 247
16 25 36 57 65 89 91 90 95 91 96 114 75 45 28 32 38 39 59 74 81 76 71 78 82 94 115 95 80 61 75 55 78 26 103 115 112 108 119 132 281 253 287 287 314 318 319 288 284 277 277 269 257 245 252 247 242 242 240 223 222 231 233 245 251 251 250 251 253 255 257 257 258 260 256 257 255 255 259 260 263 262 260 258 253 245 243
28 26 28 62 62 65 78 90 98 110 114 104 79 56 36 29 49 52 51 71 77 66 57 62 76 67 76 85 77 75 87 91 40 334 355 350 61 107 124 184 185 204 272 278 283 277 273 267 273 279 273 277 274 261 255 256 251 249 243 245 239 239 249 247 247 250 249 250 250 253 257 260 258 257 256 258 257 252 254 252 258 258 253 256 262 261 263
64 66 56 75 74 67 74 81 83 88 79 79 71 69 22 30 50 53 50 57 79 75 65 54 67 60 38 62 118 127 125 104 77 93 222 240 211 342 159 234 271 284 295 280 303 284 297 294 289 280 281 282 274 269 260 257 252 256 260 262 260 257 259 256 251 246 249 254 251 250 250 253 257 258 256 250 249 248 252 249 251 255 256 257 261 261 257
95 92 80 76 80 62 66 65 71 71 73 84 99 91 71 46 61 47 50 66 69 66 53 36 39 9 7 3 346 339 347 95 110 97 128 133 131 159 252 227 299 302 297 287 277 280 288 285 285 286 293 295 285 263 259 258 261 263 262 252 249 254 255 255 256 256 257 257 253 247 251 249 250 251 252 252 253 251 248 251 254 258 257 256 255 258 258
99 111 118 99 88 82 87 89 92 91 93 92 97 108 128 114 99 84 81 84 91 85 76 60 54 38 82 267 319 345 164 314 351 113 110 93 1 9 334 296 290 293 288 280 286 281 274 284 292 292 291 283 274 268 268 271 268 269 268 262 259 257 256 256 259 262 262 259 258 253 251 249 254 255 256 255 255 256 254 254 255 255 259 264 264 265 261
116 108 90 85 91 91 98 110 104 111 120 123 115 99 0 281 91 64 50 48 67 86 75 50 41 46 27 5 349 10 2 4 4 42 88 208 220 238 263 262 269 266 262 280 281 285 287 285 285 285 282 272 268 271 268 267 265 255 257 258 255 259 253 255 260 254 253 257 256 254 253 254 256 256 259 262 261 261 261 261 263 265 265 265 265 264 263
42 54 63 61 69 78 51 58 68 83 92 76 47 0 49 71 80 66 47 16 98 102 93 86 69 33 3 22 51 48 16 6 304 289 290 271 254 256 247 261 260 260 279 286 290 296 298 288 282 274 268 271 276 275 275 272 271 265 255 257 256 259 265 259 260 261 257 257 262 260 260 261 259 259 261 263 263 263 264 264 267 269 267 264 262 263 263
79 85 91 100 89 82 86 78 75 80 78 89 75 86 87 101 94 87 59 36 46 93 141 142 127 295 8 310 11 4 300 262 199 226 237 236 252 265 263 252 266 269 271 279 283 273 274 280 275 275 284 286 286 284 277 270 266 269 272 270 268 268 266 271 272 271 270 266 264 268 267 265 269 272 267 264 264 265 264 265 264 265 265 264 263 264 265